Flag for Moldova Weather past 2 weeks in Bălți, Moldova

Now
66 °F

Mild.


Feels Like: 66 °F
Forecast: 55 / 83 °F
Wind: 3 mph from Northeast

Location: Baltsi-Leadoveni - The North of Moldova

Current Time: Aug 2, 2015 at 2:25:14 AM

Latest Report: Aug 2, 2015 at 2:00 AM


Visibility: N/A

Pressure: 30.18 "Hg

Humidity: 52%

Dew point: 48 °F

Location of BălțiLocation

Historic Weather in Bălți — Graph

°F

Bălți temperature yesterday

Maximum temperature yesterday: 77 °F (at 2:00 PM)
Minimum temperature yesterday: 55 °F (at 5:00 AM)
Average temperature yesterday: 68 °F

Past Weeks' High & Low Weather Summary

 TemperatureHumidityPressure
High95 °F (Jul 24, 5:30 PM)100% (Jul 30, 11:00 PM)30.18 "Hg (Jul 30, 11:00 PM)
Low55 °F (Aug 1, 5:00 AM)26% (Jul 26, 11:00 AM)29.65 "Hg (Jul 26, 4:30 PM)
Average77 °F53%29.91 "Hg
* Reported Jul 18 1:00 AM — Aug 2 1:00 AM, Bălți, Weather by CustomWeather, © 2015

Note: Actual official high and low records may vary slightly from our data, if they occured in-between our weather recording intervals... More about our weather records

Advertising

Bălți weather history for previous 24 hours

 ConditionsComfort  
Time TempWeatherWind HumidityBarometerVisibility
1:00 AM
Sun, Aug 2
68 °FMild.1 mph49%30.18 "HgN/A
12:30 AM68 °FMild.2 mph49%30.18 "HgN/A
12:00 AM66 °FMild.3 mph56%30.18 "HgN/A
11:00 PM
Sat, Aug 1
70 °FMild.6 mph46%30.18 "HgN/A
10:00 PM70 °FMild.6 mph46%30.15 "HgN/A
9:30 PM68 °FMild.6 mph49%30.15 "HgN/A
9:00 PM70 °FMild.5 mph46%30.15 "HgN/A
8:30 PM72 °FMild.3 mph44%30.15 "HgN/A
8:00 PM73 °FMild.2 mph41%30.15 "HgN/A
7:30 PM75 °FMild.No wind39%30.12 "HgN/A
7:00 PM77 °FPleasantly warm.3 mph36%30.12 "HgN/A
6:30 PM77 °FPleasantly warm.5 mph36%30.12 "HgN/A
6:00 PM77 °FPleasantly warm.6 mph36%30.12 "HgN/A
5:30 PM77 °FPassing clouds.3 mph36%30.12 "HgN/A
5:00 PM77 °FPassing clouds.7 mph36%30.15 "HgN/A
4:00 PM77 °FPassing clouds.6 mph34%30.15 "HgN/A
3:30 PM77 °FPassing clouds.7 mph34%30.15 "HgN/A
3:00 PM77 °FPassing clouds.5 mph36%30.15 "HgN/A
2:30 PM77 °FPassing clouds.6 mph39%30.15 "HgN/A
2:00 PM77 °FPassing clouds.7 mph36%30.15 "HgN/A
1:00 PM75 °FScattered clouds.9 mph39%30.15 "HgN/A
12:00 PM73 °FPassing clouds.7 mph47%30.15 "HgN/A
11:00 AM70 °FPassing clouds.6 mph53%30.15 "HgN/A
10:00 AM70 °FPassing clouds.7 mph57%30.15 "HgN/A
9:30 AM68 °FPassing clouds.5 mph64%30.15 "HgN/A
9:00 AM64 °FPassing clouds.6 mph73%30.15 "HgN/A
8:00 AM61 °FCool.6 mph77%30.12 "HgN/A
7:00 AM57 °FCool.8 mph88%30.12 "HgN/A
6:30 AM57 °FCool.9 mph88%30.09 "HgN/A
6:00 AM55 °FCool.9 mph94%30.09 "HgN/A
5:00 AM55 °FCool.10 mph94%30.09 "HgN/A
4:30 AM57 °FCool.12 mph94%30.07 "HgN/A
4:00 AM59 °FCool.12 mph88%30.07 "HgN/A
3:30 AM59 °FCool.10 mph94%30.07 "HgN/A
3:00 AM59 °FCool.10 mph88%30.07 "HgN/A
2:30 AM59 °FCool.12 mph94%30.07 "HgN/A
2:00 AM59 °FCool.10 mph94%30.07 "HgN/A
Weather by CustomWeather, © 2015

See weather overviewHow to use our weather pages